Weather History for Fort Worth Spinks, TX

Change the Weather History Date:

Wednesday, November 6, 2013

  Actual Average (KDFW) Record (KDFW)
Temperature  
Mean Temperature 56 °F 60 °F  
Max Temperature 70 °F 71 °F 89 °F (1989)
Min Temperature 42 °F 50 °F 27 °F (1959)
Degree Days  
Heating Degree Days 8 6  
Month to date heating degree days 33  
Since 1 July heating degree days 105  
Cooling Degree Days 0 2  
Month to date cooling degree days 12  
Year to date cooling degree days 2735  
Growing Degree Days 6 (Base 50)    
Moisture  
Dew Point 48 °F    
Average Humidity 78    
Maximum Humidity 94    
Minimum Humidity 55    
Precipitation  
Precipitation 0.05 in 0.11 in 2.02 in (1918)
Month to date precipitation 0.68  
Year to date precipitation 31.56  
Snow  
Snow 0.00 in 0.00 in 0.00 in ()
Month to date snowfall 0.0  
Since 1 July snowfall 0.0  
Since 1 September snowfall 0.0  
Snow Depth -    
Sea Level Pressure  
Sea Level Pressure 30.20 in    
Wind  
Wind Speed 11 mph (NW)    
Max Wind Speed 23 mph    
Max Gust Speed 28 mph    
Visibility 10 miles    
Events Rain    
T = Trace of Precipitation, MM = Missing Value Source: NWS Daily Summary

Daily Weather History Graph

Daily Weather History Graph

Search for Another Location

Airport:

Trip Planner

Search our weather history database for the weather conditions in past years. The results will help you decide how hot, cold, wet, or windy it might be!

Date:

Astronomy

Nov. 06, 2013 Rise Set
Actual Time 6:51 AM CST 5:34 PM CST
Civil Twilight 6:25 AM CST 5:59 PM CST
Nautical Twilight 5:56 AM CST 6:29 PM CST
Astronomical Twilight 5:27 AM CST 6:57 PM CST
Moon 10:02 AM CST (11/6) 8:43 PM CST (11/6)
Length of Visible Light 11h 34m
Length of Day
10h 42m
Waxing Crescent, 14% of the Moon is Illuminated
Nov 6
Waxing Crescent
Nov 9
First Quarter
Nov 17
Full
Nov 25
Last Quarter
Dec 2
New

Hourly Weather History & Observations

Time (CST) Temp. Windchill Dew Point Humidity Pressure Visibility Wind Dir Wind Speed Gust Speed Precip Events Conditions
12:35 AM 70.9 °F - 67.5 °F 89% 29.99 in 10.0 mi SSW 13.8 mph 18.4 mph N/A   Overcast
12:55 AM 70.9 °F - 67.5 °F 89% 29.98 in 10.0 mi South 11.5 mph 17.3 mph N/A   Overcast
1:15 AM 70.7 °F - 67.5 °F 89% 29.98 in 10.0 mi SSW 12.7 mph 17.3 mph N/A   Overcast
1:35 AM 70.7 °F - 67.3 °F 89% 29.98 in 10.0 mi South 10.4 mph 17.3 mph N/A   Mostly Cloudy
1:55 AM 70.7 °F - 67.3 °F 89% 29.97 in 10.0 mi SSW 9.2 mph - N/A   Overcast
2:15 AM 70.0 °F - 67.3 °F 91% 29.98 in 10.0 mi SSW 6.9 mph - N/A   Overcast
2:35 AM 70.2 °F - 67.5 °F 91% 29.98 in 10.0 mi SSW 6.9 mph - N/A   Overcast
2:55 AM 69.8 °F - 67.1 °F 91% 29.98 in 10.0 mi South 10.4 mph - N/A   Overcast
3:15 AM 69.8 °F - 67.1 °F 91% 29.99 in 10.0 mi SSW 5.8 mph - N/A   Overcast
3:35 AM 69.8 °F - 67.3 °F 92% 29.99 in 10.0 mi SSW 5.8 mph - N/A   Overcast
3:55 AM 69.8 °F - 67.3 °F 92% 29.99 in 10.0 mi South 5.8 mph - N/A   Overcast
4:15 AM 67.3 °F - 63.1 °F 87% 30.03 in 10.0 mi NNW 23.0 mph 26.5 mph N/A   Overcast
4:35 AM 58.1 °F - 55.4 °F 91% 30.05 in 5.0 mi NNW 16.1 mph 27.6 mph 0.04 in Rain Heavy Rain
4:55 AM 56.5 °F - 54.3 °F 92% 30.07 in 10.0 mi NNW 19.6 mph 23.0 mph 0.05 in Rain Rain
5:15 AM 55.0 °F - 52.7 °F 92% 30.08 in 10.0 mi NNW 11.5 mph - N/A Rain Rain
6:50 AM 51.8 °F - 50.0 °F 94% 30.14 in 10.0 mi NNW 10.4 mph - N/A   Overcast
7:08 AM 51.8 °F - 50.0 °F 94% 30.15 in 10.0 mi WNW 11.5 mph 18.4 mph N/A   Overcast
7:46 AM 50.0 °F - 46.4 °F 87% 30.18 in 10.0 mi NNW 16.1 mph 25.3 mph N/A   Mostly Cloudy
8:51 AM 50.0 °F - 46.4 °F 87% 30.21 in 10.0 mi NNW 15.0 mph 23.0 mph N/A   Mostly Cloudy
9:48 AM 50.0 °F - 44.6 °F 82% 30.24 in 10.0 mi NNW 18.4 mph 27.6 mph N/A   Mostly Cloudy
10:49 AM 48.2 °F - 42.8 °F 82% 30.27 in 10.0 mi NW 17.3 mph 24.2 mph N/A   Mostly Cloudy
11:50 AM 51.8 °F - 42.8 °F 71% 30.27 in 10.0 mi NNW 18.4 mph - N/A   Scattered Clouds
12:50 PM 51.8 °F - 42.8 °F 71% 30.27 in 10.0 mi NW 21.9 mph - N/A   Clear
1:48 PM 53.6 °F - 42.8 °F 67% 30.27 in 10.0 mi North 20.7 mph - N/A   Clear
2:50 PM 57.2 °F - 44.6 °F 63% 30.26 in 10.0 mi North 17.3 mph - N/A   Clear
3:46 PM 57.2 °F - 41.0 °F 55% 30.27 in 10.0 mi North 17.3 mph - N/A   Clear
4:48 PM 57.2 °F - 41.0 °F 55% 30.27 in 10.0 mi NW 10.4 mph - N/A   Clear
5:48 PM 53.6 °F - 39.2 °F 58% 30.29 in 10.0 mi NNW 8.1 mph - N/A   Clear
6:50 PM 50.0 °F - 39.2 °F 66% 30.32 in 10.0 mi NW 5.8 mph - N/A   Clear
6:55 PM 50.0 °F - 40.1 °F 69% 30.32 in 10.0 mi NNW 6.9 mph - N/A   Clear
7:15 PM 50.2 °F - 39.6 °F 67% 30.32 in 10.0 mi NNW 8.1 mph - N/A   Clear
7:35 PM 50.0 °F - 38.3 °F 64% 30.33 in 10.0 mi NNW 8.1 mph - N/A   Clear
7:55 PM 49.3 °F - 37.4 °F 64% 30.34 in 10.0 mi NNW 8.1 mph - N/A   Clear
8:15 PM 48.6 °F - 37.4 °F 65% 30.34 in 10.0 mi NNW 6.9 mph - N/A   Clear
8:35 PM 46.6 °F - 37.2 °F 70% 30.35 in 10.0 mi North 5.8 mph - N/A   Clear
8:55 PM 46.6 °F - 37.0 °F 69% 30.35 in 10.0 mi North 9.2 mph - N/A   Clear
9:15 PM 46.9 °F - 36.7 °F 68% 30.36 in 10.0 mi North 8.1 mph - N/A   Clear
9:35 PM 45.9 °F 42.3 °F 36.7 °F 70% 30.37 in 10.0 mi North 6.9 mph - N/A   Clear
9:55 PM 44.1 °F 40.8 °F 36.3 °F 74% 30.37 in 10.0 mi North 5.8 mph - N/A   Clear
10:15 PM 43.7 °F 39.7 °F 36.5 °F 76% 30.38 in 10.0 mi North 6.9 mph - N/A   Clear
10:35 PM 44.2 °F 39.7 °F 36.1 °F 73% 30.39 in 10.0 mi North 8.1 mph - N/A   Clear
10:55 PM 44.1 °F 40.1 °F 36.0 °F 73% 30.39 in 10.0 mi North 6.9 mph - N/A   Clear
11:15 PM 43.7 °F 39.1 °F 35.8 °F 74% 30.38 in 10.0 mi North 8.1 mph - N/A   Clear
11:35 PM 43.7 °F 39.7 °F 35.6 °F 73% 30.39 in 10.0 mi North 6.9 mph - N/A   Clear
11:55 PM 42.3 °F 39.4 °F 35.6 °F 77% 30.39 in 10.0 mi North 4.6 mph - N/A   Clear